sat.trackr.live / text

‹ back to catalog

STARLINK-31687

NORAD 59798 · 2024-093S

PAYLOAD ACTIVE UNKNOWN

§ Identity

Operator
Country
US
Launch date
2024-05-18
Launch site
AFETR
Launch vehicle
Mass (kg)
RCS (m²)

Purposes: comms

External: N2YO · Heavens-Above · Gunter

§ Orbital elements

Epoch: 2026-05-25T00:18:14.909184Z

Period
94.27 min
Inclination
42.9995°
Eccentricity
0.0001206
Mean motion
15.27573349 rev/d
Perigee alt
482.2 km
Apogee alt
483.9 km
Semi-major
6,861.2 km
B*
3.7450e-6
RAAN
138.2392°
Arg perigee
274.1074°
Mean anomaly
85.9640°
Rev number
11,436

§ Raw data

STARLINK-316871 59798U 24093S   26145.01267256 -.00000159  00000+0  37450-5 0  99922 59798  42.9995 138.2392 0001206 274.1074  85.9640 15.27573349114363

JSON: /api/v1/satellites/59798 · /tle

For live sub-satellite position, see the globe view (requires WebGL).

§ Visibility from observer

Set your observer location to see the next 7 days of passes ≥ 10°. The values pass through the URL so the page stays shareable.

No JS? Fill the form by hand. The geolocation button needs JavaScript.